(348227) = 2004 RQ231

Discovered at Kitt Peak on 2004-09-09 by Spacewatch.

Orbit

Orbit type: Main Belt

Note: WebGL enabled browser required.

epoch2023-09-13.0
epoch JD2460200.5
perihelion date2023-01-19.24220
perihelion JD2459963.74220
argument of perihelion (°)358.59933
ascending node (°)295.44568
inclination (°)0.43897
eccentricity0.1886006
perihelion distance (AU)1.9745805
Tisserand w.r.t. Jupiter3.5
ΔV w.r.t. Earth (km/sec)8.8
semimajor axis (AU)2.4335493
mean anomaly (°)61.46784
mean daily motion (°/day)0.25962330
aphelion distance (AU)2.893
period (years)3.8
P-vector [x]0.40745474
P-vector [y]-0.83779341
P-vector [z]-0.36343202
Q-vector [x]0.91319920
Q-vector [y]0.37077365
Q-vector [z]0.16909798
absolute magnitude17.56
phase slope0.15
uncertainty0
referenceMPEC 2023-X62
observations used283
oppositions13
arc length (days)7557
first opposition used2003
last opposition used2023
residual rms (arc-secs)0.71
perturbers coarse indicatorM-v
perturbers precise indicator003Ek
first observation date used2003-03-27.0
last observation date used2023-12-04.0
computer nameMPCLINUX
JD of orbit computation2456270.108250
perihelion JD uncertainty (days)2.3495E-04
argument of perihelion uncertainty (°)2.2044E-03
ascending node uncertainty (°)2.2039E-03
inclination uncertainty (°)6.4976E-06
eccentricity uncertainty 6.7438E-08
perihelion distance uncertainty (AU)1.8366E-07
Minimum Orbit Intersection Distances (in AU)
for orbit epoch: 2460200.5, reference: E2023-X62
Mercury1.52588
Venus1.24733
Earth0.95789
Mars0.54604
Jupiter2.29018
Saturn6.18455
Uranus15.6816
Neptune27.1994

Observations

294 total observations over interval: 2003 03 27.30764 – 2023 12 04.254369
These data are available for download (format description).

Date (UT) J2000 RA J2000 Dec Magn Location Ref
2003 03 27.30764 13 03 58.84 -07 35 18.7 20.8 V 691 – Steward Observatory, Kitt Peak-Spacewatch MPS 175544
2003 03 27.33374 13 03 57.42 -07 35 10.5 21.0 V 691 – Steward Observatory, Kitt Peak-Spacewatch MPS 175544
2003 03 27.36035 13 03 55.96 -07 35 02.2 21.1 V 691 – Steward Observatory, Kitt Peak-Spacewatch MPS 175544
2004 09 09.43656 01 54 58.46 +12 29 41.2 20.8 V 691 – Steward Observatory, Kitt Peak-Spacewatch MPS 113276
2004 09 09.46496 01 54 57.86 +12 29 38.6 20.7 V 691 – Steward Observatory, Kitt Peak-Spacewatch MPS 113276
2004 09 09.49627 01 54 57.19 +12 29 35.8 20.9 V 691 – Steward Observatory, Kitt Peak-Spacewatch MPS 113276
2004 09 15.41689 01 52 31.29 +12 17 50.3 20.5 V 691 – Steward Observatory, Kitt Peak-Spacewatch MPS 113276
2004 09 15.44562 01 52 30.37 +12 17 46.0 20.7 V 691 – Steward Observatory, Kitt Peak-Spacewatch MPS 113276
2004 09 15.47455 01 52 29.46 +12 17 41.3 21.0 V 691 – Steward Observatory, Kitt Peak-Spacewatch MPS 113276
2004 09 22.41646 01 48 20.74 +11 56 21.9 20.8 V 691 – Steward Observatory, Kitt Peak-Spacewatch MPS 116719
2004 09 22.44293 01 48 19.61 +11 56 16.0 20.4 V 691 – Steward Observatory, Kitt Peak-Spacewatch MPS 116719
2004 09 22.46943 01 48 18.45 +11 56 10.2 20.8 V 691 – Steward Observatory, Kitt Peak-Spacewatch MPS 116719
2004 10 04.26738 01 38 44.34 +11 04 06.2 20.6 V 691 – Steward Observatory, Kitt Peak-Spacewatch MPS 116719
2004 10 04.29629 01 38 42.72 +11 03 57.1 20.4 V 691 – Steward Observatory, Kitt Peak-Spacewatch MPS 116719
2004 10 04.32458 01 38 41.13 +11 03 48.9 20.6 V 691 – Steward Observatory, Kitt Peak-Spacewatch MPS 116719
2004 10 08.26155 01 35 00.79 +10 43 04.0 20.2 V 691 – Steward Observatory, Kitt Peak-Spacewatch MPS 116719
2004 10 08.28833 01 34 59.20 +10 42 55.3 20.1 V 691 – Steward Observatory, Kitt Peak-Spacewatch MPS 116719
2004 10 08.31542 01 34 57.59 +10 42 46.7 20.2 V 691 – Steward Observatory, Kitt Peak-Spacewatch MPS 116719
2004 10 10.26918 01 33 05.32 +10 32 03.6 20.3 V 691 – Steward Observatory, Kitt Peak-Spacewatch MPS 116719
2004 10 10.29734 01 33 03.65 +10 31 54.4 20.2 V 691 – Steward Observatory, Kitt Peak-Spacewatch MPS 116719
2004 10 10.32521 01 33 01.98 +10 31 45.3 20.1 V 691 – Steward Observatory, Kitt Peak-Spacewatch MPS 116719
2006 01 22.30236 08 02 45.96 +20 24 14.1 21.7 V G96 – Mt. Lemmon Survey MPS 175544
2006 01 22.30998 08 02 45.56 +20 24 15.9 21.7 V G96 – Mt. Lemmon Survey MPS 175544
2006 01 22.31763 08 02 45.02 +20 24 17.1 21.2 V G96 – Mt. Lemmon Survey MPS 175544
2006 01 22.32527 08 02 44.48 +20 24 18.9 21.4 V G96 – Mt. Lemmon Survey MPS 175544
2007 03 15.46434 15 14 16.90 -18 39 34.4 20.9 V G96 – Mt. Lemmon Survey MPS 203049
2007 03 15.47170 15 14 17.05 -18 39 35.3 21.7 V G96 – Mt. Lemmon Survey MPS 203049
2007 03 15.47905 15 14 17.19 -18 39 35.7 20.6 V G96 – Mt. Lemmon Survey MPS 203049
2007 03 15.48640 15 14 17.30 -18 39 36.5 20.7 V G96 – Mt. Lemmon Survey MPS 203049
2007 04 11.41929 15 11 42.94 -18 35 58.0 21.4 V 691 – Steward Observatory, Kitt Peak-Spacewatch MPS 206172
2007 04 11.43695 15 11 42.38 -18 35 55.3 21.0 V 691 – Steward Observatory, Kitt Peak-Spacewatch MPS 206172
2007 04 11.45461 15 11 41.80 -18 35 53.7 20.7 V 691 – Steward Observatory, Kitt Peak-Spacewatch MPS 206172
2007 04 15.40845 15 09 26.10 -18 27 37.8 21.8 V 691 – Steward Observatory, Kitt Peak-Spacewatch MPS 206901
2007 04 15.42613 15 09 25.51 -18 27 36.7 20.5 V 691 – Steward Observatory, Kitt Peak-Spacewatch MPS 206901
2007 04 15.44381 15 09 24.77 -18 27 34.0 21.0 V 691 – Steward Observatory, Kitt Peak-Spacewatch MPS 206901
2007 04 23.41803 15 03 35.98 -18 05 05.6   691 – Steward Observatory, Kitt Peak-Spacewatch MPS 208067
2007 04 23.43764 15 03 34.98 -18 05 01.8   691 – Steward Observatory, Kitt Peak-Spacewatch MPS 208067
2007 04 23.45676 15 03 34.00 -18 04 58.1   691 – Steward Observatory, Kitt Peak-Spacewatch MPS 208067
2007 05 10.33822 14 47 53.77 -16 58 04.5 19.7 V G96 – Mt. Lemmon Survey MPS 208915
2007 05 10.34472 14 47 53.37 -16 58 02.8 19.6 V G96 – Mt. Lemmon Survey MPS 208915
2007 05 10.35121 14 47 52.87 -16 58 02.8 18.2 V G96 – Mt. Lemmon Survey MPS 208915
2007 05 10.35781 14 47 52.58 -16 57 59.4 19.6 V G96 – Mt. Lemmon Survey MPS 208915
2008 10 02.46444 03 36 55.90 +20 01 28.3 21.3 V G96 – Mt. Lemmon Survey MPS 257908
2008 10 02.47100 03 36 55.72 +20 01 28.1 21.7 V G96 – Mt. Lemmon Survey MPS 257908
2008 10 02.47770 03 36 55.58 +20 01 27.7 21.4 V G96 – Mt. Lemmon Survey MPS 257908
2008 10 02.48421 03 36 55.47 +20 01 27.0 21.8 V G96 – Mt. Lemmon Survey MPS 257908
2008 10 23.30633 03 23 47.83 +19 17 40.5 20.8 V 691 – Steward Observatory, Kitt Peak-Spacewatch MPS 260581
2008 10 23.32397 03 23 46.89 +19 17 36.9 21.0 V 691 – Steward Observatory, Kitt Peak-Spacewatch MPS 260581
2008 10 23.34161 03 23 45.89 +19 17 33.5 20.9 V 691 – Steward Observatory, Kitt Peak-Spacewatch MPS 260581
2008 10 27.27750 03 20 07.33 +19 04 12.1 20.6 V 691 – Steward Observatory, Kitt Peak-Spacewatch MPS 261498
2008 10 27.29517 03 20 06.26 +19 04 08.5 20.7 V 691 – Steward Observatory, Kitt Peak-Spacewatch MPS 261498
2008 10 27.31284 03 20 05.22 +19 04 04.5 20.9 V 691 – Steward Observatory, Kitt Peak-Spacewatch MPS 261498
2008 10 31.22530 03 16 13.89 +18 49 28.8   691 – Steward Observatory, Kitt Peak-Spacewatch MPS 261498
2008 10 31.24296 03 16 12.79 +18 49 25.2   691 – Steward Observatory, Kitt Peak-Spacewatch MPS 261498
2008 10 31.26064 03 16 11.67 +18 49 21.2   691 – Steward Observatory, Kitt Peak-Spacewatch MPS 261498
2008 11 09.25730 03 06 51.48 +18 12 12.8 20.4 V 691 – Steward Observatory, Kitt Peak-Spacewatch MPS 264592
2008 11 09.27489 03 06 50.32 +18 12 08.2 20.5 V 691 – Steward Observatory, Kitt Peak-Spacewatch MPS 264592
2008 11 09.29250 03 06 49.19 +18 12 03.8 20.5 V 691 – Steward Observatory, Kitt Peak-Spacewatch MPS 264592
2010 02 14.20672 09 04 37.30 +16 27 34.8 21.6 V G96 – Mt. Lemmon Survey MPS 313135
2010 02 14.21503 09 04 36.76 +16 27 36.6 21.5 V G96 – Mt. Lemmon Survey MPS 313135
2010 02 14.22343 09 04 36.33 +16 27 39.1 21.3 V G96 – Mt. Lemmon Survey MPS 313135
2010 02 14.23175 09 04 35.79 +16 27 41.0 21.1 V G96 – Mt. Lemmon Survey MPS 313135
2012 12 08.25380 04 23 34.04 +22 04 49.1 20.4 V G96 – Mt. Lemmon Survey MPS 445976
2012 12 08.25920 04 23 33.68 +22 04 48.3 20.4 V G96 – Mt. Lemmon Survey MPS 445977
2012 12 08.26443 04 23 33.39 +22 04 47.5 20.5 V G96 – Mt. Lemmon Survey MPS 445977
2012 12 08.26968 04 23 33.03 +22 04 46.7 20.9 V G96 – Mt. Lemmon Survey MPS 445977
2015 06 15.41752 21 19 19.19 -15 39 55.7 20.5 r G45 – Space Surveillance Telescope, Atom Site MPS 612498
2015 06 15.42281 21 19 19.29 -15 39 55.0 20.3 r G45 – Space Surveillance Telescope, Atom Site MPS 612498
2015 06 15.43598 21 19 19.61 -15 39 54.3 20.9 r G45 – Space Surveillance Telescope, Atom Site MPS 612499
2015 06 15.44039 21 19 19.72 -15 39 53.5 20.1 r G45 – Space Surveillance Telescope, Atom Site MPS 612499
2015 07 09.37643 21 19 30.37 -15 30 52.7   691 – Steward Observatory, Kitt Peak-Spacewatch MPS 615084
2015 07 09.39294 21 19 29.92 -15 30 54.1   691 – Steward Observatory, Kitt Peak-Spacewatch MPS 615084
2015 07 09.40709 21 19 29.53 -15 30 55.2   691 – Steward Observatory, Kitt Peak-Spacewatch MPS 615084
2015 07 18.33458 21 14 47.25 -15 48 56.0 20.0 r G45 – Space Surveillance Telescope, Atom Site MPS 617493
2015 07 18.33845 21 14 47.05 -15 48 57.1 20.0 r G45 – Space Surveillance Telescope, Atom Site MPS 617493
2015 07 18.34408 21 14 46.82 -15 48 57.8 19.9 r G45 – Space Surveillance Telescope, Atom Site MPS 617493
2015 07 18.35048 21 14 46.56 -15 48 59.0 19.7 r G45 – Space Surveillance Telescope, Atom Site MPS 617493
2015 07 18.35560 21 14 46.38 -15 48 59.8 19.9 r G45 – Space Surveillance Telescope, Atom Site MPS 617493
2015 07 18.35567 21 14 46.36 -15 49 00.1 20.5 r G45 – Space Surveillance Telescope, Atom Site MPS 617493
2015 07 20.33262 21 13 26.45 -15 54 12.6 19.8 r G45 – Space Surveillance Telescope, Atom Site MPS 617493
2015 07 20.33811 21 13 26.19 -15 54 13.8 19.8 r G45 – Space Surveillance Telescope, Atom Site MPS 617493
2015 07 20.34431 21 13 25.90 -15 54 14.6 19.9 r G45 – Space Surveillance Telescope, Atom Site MPS 617493
